[[{"header":{"parameterUnit":"m.s-1","parameterCategory":1,"la1":30.2991,"la2":30.254,"lo1":-89.0895,"lo2":-89.0444,"dy":0.0017,"dx":0.0017,"nx":28,"ny":28,"refTime":"2025-01-15T09:00:00:Z","depth":0,"parameterNumber":2,"parameterNumberName":"U-component_of_WINDS"},"data":[0,0,0,0,0,0,0,0,0,0,0,0,0,0,0,0,0,0,0,0,0,0,0,0,0,0,0,0,0,0,0,0,0,0,0,0,0,0,0,0,0,0,0,0,0,0,0,0,0,0,0,0,0,0,0,0,0,0,-0.1124,-0.1125,0,-0.1203,-0.1204,-0.1205,-0.1207,-0.1206,-0.1205,-0.1204,-0.1289,-0.1292,-0.1295,0,0,0,0,0,0,0,0,0,0,0,0,0,-0.0978,-0.0981,-0.1124,-0.1125,-0.1126,-0.1203,-0.1204,-0.1205,-0.1207,-0.1206,-0.1204,-0.1203,-0.1287,-0.1291,-0.1295,0,0,0,0,0,0,0,0,0,0,0,0,0,-0.1048,-0.0982,-0.1124,-0.1136,-0.1138,-0.1203,-0.1204,-0.1206,-0.1207,-0.1206,-0.1204,-0.1203,-0.1286,-0.1291,-0.1296,-0.1355,0,0,-0.131,-0.1312,0,0,0,0,0,0,0,0,-0.1044,-0.1053,-0.1134,-0.1136,-0.1138,-0.1193,-0.1184,-0.1256,-0.1207,-0.1181,-0.1204,-0.1202,-0.1258,-0.1265,-0.1284,-0.1359,-0.1362,-0.1311,-0.1313,-0.1316,-0.1317,0,0,0,0,0,0,0,-0.1039,-0.105,-0.1156,-0.1135,-0.1137,-0.1139,-0.1147,-0.1197,-0.1227,-0.1183,-0.1183,-0.1193,-0.1259,-0.1279,-0.1286,-0.1364,-0.131,-0.1315,-0.1318,-0.132,-0.1491,-0.1493,0,0,0,0,0,0,-0.1031,-0.1046,-0.1153,-0.1158,-0.1086,-0.1143,-0.1152,-0.1177,-0.1227,-0.1233,-0.1194,-0.1192,-0.1271,-0.128,-0.1289,-0.1362,-0.1316,-0.132,-0.1323,-0.149,-0.1492,-0.1494,0,0,0,0,0,0,-0.1028,-0.1041,-0.115,-0.1102,-0.1116,-0.1147,-0.1175,-0.1179,-0.1199,-0.1235,-0.124,-0.1208,-0.1271,-0.1282,-0.1338,-0.1365,-0.1322,-0.1326,-0.1488,-0.149,-0.1493,-0.1508,0,0,0,0,0,0,-0.1024,-0.104,-0.1062,-0.1102,-0.1119,-0.1197,-0.1177,-0.1182,-0.1207,-0.1206,-0.125,-0.1256,-0.127,-0.1331,-0.1343,-0.137,-0.133,-0.1486,-0.1489,-0.1492,-0.1505,-0.1511,-0.1515,0,0,0,0,0,-0.1019,-0.1064,-0.1063,-0.1076,-0.1147,-0.1199,-0.1208,-0.1223,-0.1209,-0.1232,-0.1255,-0.1254,-0.1359,-0.1337,-0.135,-0.1379,-0.1484,-0.1488,-0.1492,-0.1503,-0.151,-0.1515,0,0,0,0,0,0,-0.1028,-0.107,-0.1069,-0.1129,-0.116,-0.1199,-0.1229,-0.123,-0.1267,-0.1265,-0.1283,-0.1293,-0.1349,-0.1369,-0.1344,-0.1439,-0.142,-0.1427,-0.1424,-0.1431,-0.1435,-0.143,-0.1334,0,0,0,0,0,-0.1037,-0.1074,-0.1109,-0.1158,-0.1174,-0.1198,-0.1222,-0.123,-0.1264,-0.1278,-0.1305,-0.1338,-0.1379,-0.1406,-0.1445,-0.1507,-0.1517,-0.1534,-0.1539,-0.1543,-0.1549,-0.1584,-0.1592,-0.1506,-0.1506,-0.1506,0,0,-0.1056,-0.1083,-0.1106,-0.1161,-0.1186,-0.1226,-0.121,-0.1253,-0.1282,-0.1285,-0.1339,-0.136,-0.1399,-0.1458,-0.1486,-0.1477,-0.1575,-0.1548,-0.1551,-0.1555,-0.1589,-0.1597,-0.1604,-0.1509,-0.1508,-0.1508,0,0,-0.1111,-0.1135,-0.1178,-0.1203,-0.1241,-0.1257,-0.1267,-0.1306,-0.1319,-0.1373,-0.1376,-0.1412,-0.1481,-0.1509,-0.1532,-0.1595,-0.1597,-0.1608,-0.1635,-0.1669,-0.1676,-0.1682,-0.1706,-0.1714,-0.1613,-0.1613,-0.1613,0,-0.113,-0.1189,-0.1201,-0.1244,-0.1268,-0.1269,-0.1314,-0.1338,-0.1388,-0.1405,-0.1394,-0.148,-0.1507,-0.1573,-0.1588,-0.1606,-0.162,-0.1604,-0.1673,-0.168,-0.1686,-0.1709,-0.1717,-0.1615,-0.1614,-0.1614,-0.1614,0,-0.1211,-0.1252,-0.1283,-0.1328,-0.1356,-0.1399,-0.1419,-0.1445,-0.1451,-0.1468,-0.1524,-0.1555,-0.16,-0.1616,-0.1623,-0.1683,-0.1677,-0.1669,-0.1651,-0.1695,-0.1717,-0.1725,-0.1616,-0.1616,-0.1616,-0.1615,0,0,-0.1277,-0.1327,-0.1338,-0.1359,-0.14,-0.1432,-0.1475,-0.1518,-0.1541,-0.1574,-0.1612,-0.167,-0.1663,-0.1689,-0.1698,-0.1727,-0.1777,-0.1717,-0.1718,-0.1728,-0.1846,-0.1853,-0.1863,-0.1776,-0.1778,-0.178,-0.1844,0,-0.1338,-0.1414,-0.1425,-0.1493,-0.1531,-0.1532,-0.157,-0.1599,-0.1616,-0.1651,-0.167,-0.1711,-0.1698,-0.1714,-0.1742,-0.1764,-0.1801,-0.176,-0.1814,-0.1815,-0.1806,-0.1874,-0.1882,-0.1941,-0.1852,-0.1853,-0.1855,0,-0.1419,-0.1453,-0.1524,-0.1559,-0.1575,-0.1609,-0.1649,-0.1682,-0.1716,-0.1725,-0.1754,-0.1759,-0.1805,-0.1782,-0.1846,-0.1818,-0.184,-0.1854,-0.1857,-0.1864,-0.1839,-0.1885,-0.196,-0.1969,-0.1868,-0.1867,-0.1866,0,-0.1462,-0.1525,-0.1575,-0.1593,-0.1634,-0.1658,-0.1677,-0.1708,-0.1733,-0.1768,-0.1785,-0.1825,-0.1848,-0.1879,-0.1895,-0.1877,-0.1959,-0.1937,-0.197,-0.1969,-0.1989,-0.1988,-0.207,-0.2,-0.2,-0.2,-0.1999,0,-0.153,-0.1573,-0.1595,-0.1626,-0.1675,-0.1688,-0.1736,-0.1754,-0.1782,-0.1818,-0.1821,-0.1854,-0.1873,-0.1909,-0.1922,-0.1974,-0.1984,-0.1994,-0.1998,-0.1995,-0.1994,-0.2012,-0.2009,-0.2002,-0.2002,-0.2001,-0.2001,0,-0.1587,-0.1602,-0.1658,-0.1691,-0.1701,-0.1736,-0.1765,-0.1796,-0.1811,-0.1856,-0.1868,-0.1892,-0.1935,-0.1954,-0.2007,-0.2016,-0.2075,-0.2075,-0.2064,-0.2066,-0.2097,-0.2095,-0.2196,-0.221,-0.2128,-0.2129,-0.213,0,-0.163,-0.1663,-0.17,-0.1723,-0.1742,-0.1779,-0.1804,-0.1817,-0.1843,-0.1882,-0.1909,-0.1951,-0.1986,-0.2055,-0.2079,-0.2119,-0.2121,-0.2153,-0.2127,-0.2124,-0.2123,-0.2122,-0.2126,-0.2159,-0.216,-0.216,-0.2161,0,-0.1705,-0.1711,-0.1746,-0.1783,-0.1812,-0.1843,-0.1873,-0.1892,-0.1909,-0.1938,-0.1981,-0.2008,-0.2061,-0.2104,-0.2146,-0.2166,-0.2167,-0.2168,-0.2178,-0.2177,-0.217,-0.2176,-0.2079,-0.2167,-0.2166,-0.2166,-0.2165,-0.2165,-0.1758,-0.1788,-0.1818,-0.1856,-0.1879,-0.1907,-0.1937,-0.1955,-0.1991,-0.2035,-0.204,-0.2086,-0.2118,-0.2174,-0.2196,-0.2233,-0.2225,-0.2239,-0.2243,-0.2247,-0.225,-0.2162,-0.224,-0.224,-0.224,-0.224,-0.224,0,-0.1835,-0.1854,-0.1889,-0.1929,-0.196,-0.1955,-0.1987,-0.2014,-0.2054,-0.2083,-0.2116,-0.2166,-0.2207,-0.2232,-0.2274,-0.2299,-0.23,-0.2309,-0.2309,-0.2314,-0.2254,-0.2242,-0.2307,-0.2307,-0.2307,-0.2307,-0.2307,-0.2307,-0.1879,-0.1929,-0.1938,-0.1999,-0.2018,-0.2062,-0.2081,-0.2107,-0.213,-0.2184,-0.2218,-0.2233,-0.2261,-0.2304,-0.2342,-0.2348,-0.2364,-0.2374,-0.2381,-0.2325,-0.2318,-0.2311,-0.23,-0.2377,-0.2377,-0.2438,-0.2438,-0.2439]},{"header":{"parameterUnit":"m.s-1","parameterCategory":1,"la1":30.2991,"la2":30.254,"lo1":-89.0895,"lo2":-89.0444,"dy":0.0017,"dx":0.0017,"nx":28,"ny":28,"refTime":"2025-01-15T09:00:00:Z","depth":0,"parameterNumber":3,"parameterNumberName":"V-component_of_WINDS"},"data":[0,0,0,0,0,0,0,0,0,0,0,0,0,0,0,0,0,0,0,0,0,0,0,0,0,0,0,0,0,0,0,0,0,0,0,0,0,0,0,0,0,0,0,0,0,0,0,0,0,0,0,0,0,0,0,0,0,0,-6.4539,-6.454,0,-6.4568,-6.4568,-6.4569,-6.4459,-6.4455,-6.4452,-6.4449,-6.4475,-6.4479,-6.4482,0,0,0,0,0,0,0,0,0,0,0,0,0,-6.4386,-6.4389,-6.4539,-6.454,-6.454,-6.4568,-6.4568,-6.4569,-6.4459,-6.4455,-6.4451,-6.4447,-6.4474,-6.4478,-6.4483,0,0,0,0,0,0,0,0,0,0,0,0,0,-6.4438,-6.4391,-6.4539,-6.4489,-6.4484,-6.4568,-6.4568,-6.4569,-6.446,-6.4455,-6.445,-6.4446,-6.4472,-6.4478,-6.4483,-6.4616,0,0,-6.4501,-6.4503,0,0,0,0,0,0,0,0,-6.4435,-6.4443,-6.4496,-6.4492,-6.4488,-6.4505,-6.4524,-6.4585,-6.4461,-6.4469,-6.4449,-6.4443,-6.4489,-6.4493,-6.4509,-6.4617,-6.4618,-6.4501,-6.4504,-6.4507,-6.4508,0,0,0,0,0,0,0,-6.4431,-6.4441,-6.455,-6.4497,-6.4492,-6.4464,-6.4466,-6.4535,-6.4506,-6.4468,-6.446,-6.4465,-6.4486,-6.4504,-6.4509,-6.4619,-6.4501,-6.4506,-6.4509,-6.4512,-6.4838,-6.4843,0,0,0,0,0,0,-6.4435,-6.4439,-6.4549,-6.4551,-6.4449,-6.447,-6.4472,-6.4504,-6.4505,-6.45,-6.4469,-6.446,-6.4496,-6.4502,-6.4509,-6.4665,-6.4507,-6.4512,-6.4515,-6.4833,-6.4839,-6.4845,0,0,0,0,0,0,-6.4432,-6.4446,-6.4548,-6.4493,-6.4504,-6.4478,-6.4515,-6.4507,-6.4525,-6.4506,-6.45,-6.4493,-6.4493,-6.4501,-6.4591,-6.4664,-6.4515,-6.452,-6.4826,-6.4835,-6.4842,-6.4978,0,0,0,0,0,0,-6.4428,-6.4445,-6.4496,-6.4495,-6.4508,-6.4631,-6.4519,-6.4511,-6.4536,-6.4524,-6.4527,-6.4523,-6.449,-6.4583,-6.4596,-6.4669,-6.4524,-6.482,-6.483,-6.4839,-6.4966,-6.4989,-6.5009,0,0,0,0,0,-6.4423,-6.4532,-6.4499,-6.4513,-6.4571,-6.4635,-6.4642,-6.4603,-6.4542,-6.4592,-6.458,-6.4523,-6.4654,-6.4593,-6.4607,-6.4683,-6.4815,-6.4827,-6.4839,-6.4957,-6.4985,-6.5008,0,0,0,0,0,0,-6.4541,-6.4531,-6.4494,-6.4607,-6.4623,-6.4616,-6.4679,-6.4633,-6.4666,-6.4653,-6.4602,-6.4604,-6.4702,-6.4701,-6.4633,-6.4811,-6.4724,-6.4739,-6.4809,-6.4835,-6.4856,-6.4854,-6.4529,0,0,0,0,0,-6.458,-6.4634,-6.4622,-6.4723,-6.4733,-6.4705,-6.4731,-6.47,-6.4714,-6.472,-6.4714,-6.4729,-6.4774,-6.4804,-6.4844,-6.4966,-6.4965,-6.5025,-6.5046,-6.5063,-6.5077,-6.5142,-6.5169,-6.4884,-6.4884,-6.4884,0,0,-6.4661,-6.4662,-6.47,-6.4746,-6.4755,-6.4812,-6.4711,-6.4775,-6.4817,-6.4729,-6.4814,-6.4811,-6.4824,-6.493,-6.4977,-6.4932,-6.5156,-6.5079,-6.5093,-6.5097,-6.5157,-6.5185,-6.5209,-6.4892,-6.4891,-6.4889,0,0,-6.4838,-6.4845,-6.493,-6.4941,-6.4956,-6.4937,-6.4958,-6.4959,-6.4954,-6.5038,-6.4974,-6.5022,-6.51,-6.5113,-6.5129,-6.5313,-6.5261,-6.5327,-6.5438,-6.5502,-6.5524,-6.5544,-6.561,-6.5635,-6.5341,-6.5341,-6.5342,0,-6.4937,-6.5021,-6.4978,-6.5048,-6.507,-6.4995,-6.5081,-6.5093,-6.5121,-6.5138,-6.5087,-6.5185,-6.5188,-6.5297,-6.5342,-6.5358,-6.538,-6.5327,-6.5525,-6.5544,-6.5562,-6.5624,-6.5649,-6.5349,-6.5348,-6.5348,-6.5347,0,-6.5142,-6.5202,-6.5268,-6.5298,-6.5328,-6.5405,-6.5374,-6.5409,-6.5375,-6.5361,-6.5449,-6.545,-6.549,-6.5513,-6.548,-6.5618,-6.559,-6.5534,-6.5444,-6.5598,-6.5656,-6.5679,-6.5361,-6.5358,-6.5355,-6.5354,0,0,-6.5393,-6.5401,-6.5426,-6.5439,-6.5451,-6.5496,-6.5569,-6.561,-6.5641,-6.5662,-6.5723,-6.5791,-6.5739,-6.5758,-6.5726,-6.5782,-6.5929,-6.5718,-6.5718,-6.5758,-6.6082,-6.6125,-6.6154,-6.5895,-6.5899,-6.5903,-6.6081,0,-6.5568,-6.5696,-6.566,-6.5787,-6.5842,-6.5772,-6.5836,-6.5851,-6.584,-6.5884,-6.5871,-6.5921,-6.5848,-6.5859,-6.5912,-6.59,-6.5993,-6.5886,-6.595,-6.5953,-6.595,-6.6184,-6.623,-6.6398,-6.6103,-6.6107,-6.611,0,-6.5789,-6.5822,-6.5955,-6.5959,-6.5981,-6.604,-6.6074,-6.6117,-6.6132,-6.612,-6.6142,-6.6099,-6.617,-6.6081,-6.6179,-6.6108,-6.6132,-6.613,-6.6135,-6.614,-6.6041,-6.6196,-6.6451,-6.6477,-6.6145,-6.6142,-6.614,0,-6.5961,-6.6037,-6.6127,-6.6141,-6.6148,-6.6191,-6.6195,-6.6205,-6.6232,-6.6262,-6.6279,-6.6316,-6.6337,-6.6366,-6.6334,-6.6272,-6.6438,-6.6345,-6.643,-6.6431,-6.6468,-6.6466,-6.6731,-6.6483,-6.6482,-6.6482,-6.6481,0,-6.616,-6.6244,-6.6205,-6.626,-6.6353,-6.6311,-6.6404,-6.64,-6.641,-6.6463,-6.6403,-6.6454,-6.6408,-6.6455,-6.643,-6.6516,-6.6525,-6.6517,-6.651,-6.6523,-6.6525,-6.6539,-6.6526,-6.6489,-6.6487,-6.6486,-6.6485,0,-6.6367,-6.6344,-6.6438,-6.6437,-6.6439,-6.6508,-6.6507,-6.6558,-6.6543,-6.6611,-6.6625,-6.6602,-6.6654,-6.6624,-6.6677,-6.666,-6.6772,-6.6748,-6.6768,-6.6762,-6.6849,-6.6841,-6.7132,-6.7169,-6.6896,-6.6899,-6.6901,0,-6.6496,-6.656,-6.6567,-6.66,-6.6609,-6.6661,-6.6689,-6.665,-6.6681,-6.6704,-6.6752,-6.6799,-6.6835,-6.6921,-6.6908,-6.6949,-6.6926,-6.7025,-6.6931,-6.6943,-6.6928,-6.6925,-6.6932,-6.7044,-6.7047,-6.705,-6.7052,0,-6.6728,-6.6714,-6.6757,-6.6798,-6.6833,-6.6862,-6.6886,-6.6915,-6.6877,-6.6915,-6.6968,-6.6996,-6.7051,-6.7099,-6.7133,-6.7136,-6.7089,-6.7082,-6.7103,-6.7118,-6.7128,-6.7125,-6.682,-6.7075,-6.7073,-6.7071,-6.707,-6.7069,-6.6901,-6.6955,-6.6969,-6.702,-6.7034,-6.7058,-6.7107,-6.7099,-6.7144,-6.7187,-6.716,-6.7223,-6.7236,-6.7278,-6.7288,-6.7336,-6.7296,-6.7328,-6.7336,-6.7345,-6.7357,-6.712,-6.7342,-6.7342,-6.7341,-6.734,-6.734,0,-6.7131,-6.7137,-6.7184,-6.7221,-6.7261,-6.7213,-6.7237,-6.7273,-6.733,-6.7347,-6.7384,-6.7446,-6.7493,-6.7484,-6.7526,-6.7566,-6.7545,-6.7579,-6.7576,-6.7578,-6.739,-6.7367,-6.7595,-6.7595,-6.7595,-6.7595,-6.7595,-6.7595,-6.7255,-6.7345,-6.7333,-6.7429,-6.7433,-6.7496,-6.7515,-6.7537,-6.755,-6.7623,-6.7662,-6.7656,-6.7663,-6.7705,-6.7746,-6.7742,-6.776,-6.7803,-6.7791,-6.7616,-6.7591,-6.7567,-6.7545,-6.7807,-6.7807,-6.7974,-6.7976,-6.7977]}]]